This demonstration page uses our WeatherBlox Daily Observations layout. Learn more.

Left ArrowRight Arrow

Hourly Observations for June 21, 2017

Temp ( °F °C ) Dew Point ( °F °C ) Humidity (%) Winds ( mph kmh ) Pressure ( in mb ) Visibility ( mi km ) Precip ( " mm )
12:56 am 00:56 Mostly Clear 73 22.5 58 14.3 60 60 E 3 6 29.86 1011 10 16 0.00 0.00
1:56 am 01:56 Clear 71 21.7 57 14.1 62 62 E 5 7 29.83 1010 10 16 0.00 0.00
2:56 am 02:56 Clear 70 20.9 57 14.1 65 65 ESE 3 6 29.83 1010 10 16 0.00 0.00
3:56 am 03:56 Clear 69 20.6 57 13.8 65 65 SE 5 7 29.82 1010 10 16 0.00 0.00
4:56 am 04:56 Clear 66 19.1 58 14.6 75 75 Calm 29.81 1010 10 16 0.00 0.00
5:56 am 05:56 Sunny 65 18.5 59 14.8 79 79 S 3 6 29.80 1009 10 16 0.00 0.00
6:56 am 06:56 Partly Cloudy 70 20.9 62 16.7 77 77 SSE 6 9 29.79 1009 10 16 0.00 0.00
7:56 am 07:56 Sunny 74 23.6 65 18.2 72 72 SE 7 11 29.77 1008 10 16 0.00 0.00
8:56 am 08:56 Sunny 80 26.9 66 19 62 62 S 9 15 29.76 1008 10 16 0.00 0.00
9:56 am 09:56 Sunny 84 29 65 18.1 52 52 N 7 11 29.82 1010 10 16 0.00 0.00
10:56 am 10:56 Sunny 86 29.8 67 19.2 53 53 E 5 7 29.79 1009 10 16 0.00 0.00
11:56 am 11:56 Partly Cloudy 87 30.3 68 20.2 55 55 E 7 11 29.79 1009 10 16 0.00 0.00
12:56 pm 12:56 Sunny 90 32.1 69 20.6 51 51 SE 12 19 29.76 1008 10 16 0.00 0.00
1:25 pm 13:25 Sunny 91 33 68 20 46 46 S 15 24 29.75 1008 10 16 0.00 0.00
1:56 pm 13:56 Sunny 92 33.4 68 20.2 46 46 S 20 31 29.74 1007 10 16 0.00 0.00
2:56 pm 14:56 Sunny 94 34.2 65 18.6 40 40 S 16 26 29.70 1006 10 16 0.00 0.00
3:56 pm 15:56 Sunny 96 35.3 62 16.5 33 33 S 18 30 29.69 1005 10 16 0.00 0.00
4:56 pm 16:56 Sunny 96 35.3 63 17 34 34 S 20 31 29.67 1005 10 16 0.00 0.00
5:56 pm 17:56 Sunny 95 34.8 65 18.3 38 38 S 16 26 29.66 1004 10 16 0.00 0.00
6:56 pm 18:56 Sunny 93 33.8 64 17.5 38 38 S 16 26 29.66 1004 10 16 0.00 0.00
7:56 pm 19:56 Sunny 90 32.3 62 16.5 39 39 S 14 22 29.66 1004 10 16 0.00 0.00
8:56 pm 20:56 Sunny 86 30.1 60 15.7 42 42 S 13 20 29.62 1003 10 16 0.00 0.00
9:56 pm 21:56 Clear 84 29 59 15.1 43 43 SSE 16 26 29.62 1003 10 16 0.00 0.00
10:56 pm 22:56 Clear 83 28.5 58 14.7 43 43 S 14 22 29.68 1005 10 16 0.00 0.00
11:56 pm 23:56 Clear 81 27.3 61 16.2 51 51 S 13 20 29.71 1006 10 16 0.00 0.00

Powered by AerisWeather